^^
Datos históricos de la estación: Murcia-Puente Tocinos
Diario Informe para Agosto 20, 2019 Unidades:  Métrico    Inglés   Ambas
Diario Semanal Mensual Anual Configurable
  Máximo: Mínimo: Media:
Temperatura: 31.9 °C 24.4 °C 27.7 °C
Punto de rocio: 23.3 °C 19.9 °C 21.9 °C
Humedad: 89% 51% 72%
Velocidad viento: 22.5km/h 0.0km/h 8.7km/h
Racha viento: 40.7km/h - -
Viento- - East
Presión: 1016.8 hPa 1012.0 hPa -
Precipitación: 0.0 mm    
Historical Graphs
 
 
Tabla de datos para Agosto 20, 2019
Hora Temperatura Punto de rocio Presión Viento Velocidad viento Racha viento Humedad Intensidad lluvia(por hora) Nubes
00:00 26.8 °C 23.2 °C 1012.9 hPa NE 8.0 km/h 11.3 km/h 81% 0.0 mm CLR
00:05 26.7 °C 23.2 °C 1012.9 hPa NE 8.0 km/h 11.3 km/h 81% 0.0 mm CLR
00:10 26.7 °C 23.2 °C 1012.9 hPa NE 4.8 km/h 9.7 km/h 81% 0.0 mm CLR
00:15 26.7 °C 23.2 °C 1012.9 hPa NE 4.8 km/h 11.3 km/h 81% 0.0 mm CLR
00:20 26.7 °C 23.2 °C 1013.0 hPa NNE 4.8 km/h 8.0 km/h 81% 0.0 mm CLR
00:25 26.7 °C 23.2 °C 1013.0 hPa North 4.8 km/h 8.0 km/h 81% 0.0 mm CLR
00:30 26.6 °C 23.3 °C 1013.0 hPa North 3.2 km/h 8.0 km/h 82% 0.0 mm CLR
00:35 26.6 °C 23.3 °C 1013.0 hPa NNE 3.2 km/h 8.0 km/h 82% 0.0 mm CLR
00:40 26.6 °C 23.3 °C 1013.0 hPa NNE 3.2 km/h 8.0 km/h 82% 0.0 mm CLR
00:45 26.6 °C 23.3 °C 1013.0 hPa NE 3.2 km/h 8.0 km/h 82% 0.0 mm CLR
00:50 26.5 °C 23.2 °C 1013.0 hPa NE 4.8 km/h 8.0 km/h 82% 0.0 mm CLR
00:55 26.5 °C 23.2 °C 1013.0 hPa NE 4.8 km/h 8.0 km/h 82% 0.0 mm CLR
01:00 26.5 °C 23.2 °C 1013.0 hPa NE 3.2 km/h 8.0 km/h 82% 0.0 mm CLR
01:05 26.5 °C 22.9 °C 1012.9 hPa NE 3.9 km/h 7.4 km/h 81% 0.0 mm CLR
01:10 26.5 °C 22.9 °C 1012.9 hPa NE 3.2 km/h 8.0 km/h 81% 0.0 mm CLR
01:15 26.6 °C 23.0 °C 1012.9 hPa ENE 3.2 km/h 8.0 km/h 81% 0.0 mm CLR
01:20 26.5 °C 22.9 °C 1013.0 hPa ENE 3.2 km/h 8.0 km/h 81% 0.0 mm CLR
01:25 26.6 °C 23.1 °C 1013.0 hPa NE 3.2 km/h 6.4 km/h 81% 0.0 mm CLR
01:30 26.5 °C 22.9 °C 1013.0 hPa NE 3.2 km/h 8.0 km/h 81% 0.0 mm CLR
01:35 26.5 °C 22.9 °C 1012.8 hPa NE 3.2 km/h 8.0 km/h 81% 0.0 mm CLR
01:40 26.5 °C 22.9 °C 1012.8 hPa NE 3.2 km/h 8.0 km/h 81% 0.0 mm CLR
01:45 26.5 °C 22.9 °C 1012.8 hPa NNE 3.2 km/h 8.0 km/h 81% 0.0 mm CLR
01:50 26.4 °C 22.9 °C 1012.7 hPa NE 3.2 km/h 8.0 km/h 81% 0.0 mm CLR
01:55 26.4 °C 22.9 °C 1012.7 hPa NE 3.2 km/h 8.0 km/h 81% 0.0 mm CLR
02:00 26.3 °C 23.0 °C 1012.7 hPa NNE 4.8 km/h 9.7 km/h 82% 0.0 mm CLR
02:05 26.3 °C 23.0 °C 1012.5 hPa NNE 4.8 km/h 9.7 km/h 82% 0.0 mm CLR
02:10 26.2 °C 22.9 °C 1012.5 hPa NNE 3.2 km/h 9.7 km/h 82% 0.0 mm CLR
02:15 26.2 °C 22.9 °C 1012.5 hPa NNE 3.2 km/h 8.0 km/h 82% 0.0 mm CLR
02:20 26.2 °C 23.1 °C 1012.6 hPa NNE 3.2 km/h 8.0 km/h 83% 0.0 mm CLR
02:25 26.2 °C 23.1 °C 1012.6 hPa NE 3.2 km/h 8.0 km/h 83% 0.0 mm CLR
02:30 26.1 °C 23.0 °C 1012.6 hPa NE 3.9 km/h 7.4 km/h 83% 0.0 mm CLR
02:35 26.1 °C 23.0 °C 1012.6 hPa NE 3.2 km/h 8.0 km/h 83% 0.0 mm CLR
02:40 26.1 °C 23.2 °C 1012.6 hPa NE 3.2 km/h 8.0 km/h 84% 0.0 mm CLR
02:45 26.0 °C 23.1 °C 1012.6 hPa NE 3.2 km/h 9.7 km/h 84% 0.0 mm CLR
02:50 25.9 °C 23.0 °C 1012.6 hPa NE 3.2 km/h 8.0 km/h 84% 0.0 mm CLR
02:55 25.9 °C 23.0 °C 1012.6 hPa NE 3.2 km/h 8.0 km/h 84% 0.0 mm CLR
03:00 25.9 °C 23.2 °C 1012.6 hPa NNE 3.2 km/h 8.0 km/h 85% 0.0 mm
03:05 25.9 °C 23.2 °C 1012.6 hPa North 3.2 km/h 8.0 km/h 85% 0.0 mm
03:10 25.9 °C 23.2 °C 1012.6 hPa NNW 3.2 km/h 6.4 km/h 85% 0.0 mm
03:15 25.9 °C 23.0 °C 1012.6 hPa NW 3.2 km/h   84% 0.0 mm CLR
03:20 25.9 °C 23.0 °C 1012.7 hPa Calm     84% 0.0 mm CLR
03:25 25.9 °C 23.2 °C 1012.7 hPa Calm     85% 0.0 mm
03:30 25.9 °C 23.2 °C 1012.7 hPa Calm     85% 0.0 mm
03:35 25.9 °C 23.2 °C 1012.6 hPa Calm     85% 0.0 mm
03:40 25.9 °C 23.2 °C 1012.6 hPa Calm   4.8 km/h 85% 0.0 mm
03:45 25.8 °C 23.1 °C 1012.6 hPa Calm   8.0 km/h 85% 0.0 mm
03:50 25.8 °C 23.1 °C 1012.4 hPa ESE 3.2 km/h 8.0 km/h 85% 0.0 mm
03:55 25.8 °C 23.1 °C 1012.4 hPa ESE 3.2 km/h 8.0 km/h 85% 0.0 mm
04:00 25.7 °C 23.0 °C 1012.4 hPa East 4.8 km/h 8.0 km/h 85% 0.0 mm
04:05 25.7 °C 23.2 °C 1012.3 hPa East 4.8 km/h 8.0 km/h 86% 0.0 mm
04:10 25.6 °C 22.9 °C 1012.3 hPa ESE 3.2 km/h 8.0 km/h 85% 0.0 mm
04:15 25.6 °C 23.1 °C 1012.3 hPa ESE 3.2 km/h 8.0 km/h 86% 0.0 mm
04:20 25.6 °C 23.1 °C 1012.2 hPa East 3.2 km/h 8.0 km/h 86% 0.0 mm
04:25 25.5 °C 23.0 °C 1012.2 hPa NE 3.2 km/h 6.4 km/h 86% 0.0 mm
04:30 25.4 °C 22.9 °C 1012.2 hPa NE 3.2 km/h 4.8 km/h 86% 0.0 mm
04:35 25.4 °C 22.9 °C 1012.2 hPa NE 3.2 km/h 4.8 km/h 86% 0.0 mm
04:40 25.4 °C 22.9 °C 1012.2 hPa NE 3.2 km/h 8.0 km/h 86% 0.0 mm
04:45 25.4 °C 22.9 °C 1012.2 hPa NNE 3.2 km/h 8.0 km/h 86% 0.0 mm
04:50 25.3 °C 22.8 °C 1012.0 hPa NNE 3.2 km/h 8.0 km/h 86% 0.0 mm
04:55 25.3 °C 23.0 °C 1012.0 hPa NNE 3.2 km/h 4.8 km/h 87% 0.0 mm
05:00 25.3 °C 23.0 °C 1012.0 hPa NNE 3.2 km/h 4.8 km/h 87% 0.0 mm
05:05 25.2 °C 22.9 °C 1012.1 hPa NNE 3.2 km/h 6.4 km/h 87% 0.0 mm
05:10 25.2 °C 22.9 °C 1012.1 hPa NNW 3.2 km/h 8.0 km/h 87% 0.0 mm
05:15 25.1 °C 22.8 °C 1012.1 hPa NW 3.2 km/h 4.7 km/h 87% 0.0 mm CLR
05:20 25.1 °C 22.8 °C 1012.2 hPa NW 3.2 km/h 8.0 km/h 87% 0.0 mm
05:25 25.1 °C 22.8 °C 1012.2 hPa NNW 3.2 km/h 4.8 km/h 87% 0.0 mm
05:30 25.1 °C 22.8 °C 1012.2 hPa Calm   3.2 km/h 87% 0.0 mm
05:35 25.1 °C 22.8 °C 1012.1 hPa Calm   6.4 km/h 87% 0.0 mm
05:40 25.1 °C 22.8 °C 1012.1 hPa NNW 3.2 km/h 6.4 km/h 87% 0.0 mm
05:45 25.0 °C 22.7 °C 1012.1 hPa NNW 3.2 km/h 3.2 km/h 87% 0.0 mm
05:50 25.0 °C 22.7 °C 1012.2 hPa Calm   4.8 km/h 87% 0.0 mm
05:55 24.9 °C 22.6 °C 1012.2 hPa Calm   11.3 km/h 87% 0.0 mm
06:00 24.7 °C 22.3 °C 1012.2 hPa ESE 8.0 km/h 9.7 km/h 87% 0.0 mm
06:05 24.6 °C 22.5 °C 1012.2 hPa ESE 8.0 km/h 8.0 km/h 88% 0.0 mm
06:10 24.5 °C 22.4 °C 1012.2 hPa ESE 3.2 km/h 8.0 km/h 88% 0.0 mm
06:15 24.4 °C 22.3 °C 1012.2 hPa ESE 3.2 km/h 3.2 km/h 88% 0.0 mm
06:20 24.4 °C 22.4 °C 1012.0 hPa Calm     89% 0.0 mm
06:25 24.4 °C 22.5 °C 1012.0 hPa Calm     89% 0.0 mm
06:30 24.4 °C 22.4 °C 1012.0 hPa Calm     89% 0.0 mm
06:35 24.5 °C 22.6 °C 1012.0 hPa Calm     89% 0.0 mm
06:40 24.5 °C 22.6 °C 1012.0 hPa Calm     89% 0.0 mm
06:45 24.6 °C 22.7 °C 1012.0 hPa Calm     89% 0.0 mm
06:50 24.6 °C 22.7 °C 1012.1 hPa Calm     89% 0.0 mm
06:55 24.6 °C 22.7 °C 1012.1 hPa Calm     89% 0.0 mm
07:00 24.6 °C 22.7 °C 1012.1 hPa Calm     89% 0.0 mm
07:05 24.5 °C 22.4 °C 1012.3 hPa Calm   4.8 km/h 88% 0.0 mm
07:10 24.6 °C 22.4 °C 1012.3 hPa Calm   3.2 km/h 88% 0.0 mm
07:15 24.6 °C 22.4 °C 1012.3 hPa Calm     88% 0.0 mm
07:20 24.6 °C 22.5 °C 1012.4 hPa Calm     88% 0.0 mm
07:25 24.6 °C 22.5 °C 1012.4 hPa Calm   3.2 km/h 88% 0.0 mm
07:30 24.7 °C 22.6 °C 1012.4 hPa Calm   3.7 km/h 88% 0.0 mm CLR
07:35 24.7 °C 22.3 °C 1012.4 hPa Calm   8.0 km/h 87% 0.0 mm
07:40 24.6 °C 22.3 °C 1012.4 hPa SSE 3.2 km/h 8.0 km/h 87% 0.0 mm
07:45 24.7 °C 22.4 °C 1012.4 hPa SE 3.2 km/h 4.8 km/h 87% 0.0 mm
07:50 24.7 °C 22.4 °C 1012.5 hPa SE 3.2 km/h 6.4 km/h 87% 0.0 mm
07:55 24.7 °C 22.4 °C 1012.5 hPa SE 3.2 km/h 8.0 km/h 87% 0.0 mm
08:00 24.8 °C 22.3 °C 1012.5 hPa SSE 3.2 km/h 8.0 km/h 86% 0.0 mm
08:05 24.9 °C 22.4 °C 1012.5 hPa SE 3.9 km/h 3.7 km/h 86% 0.0 mm CLR
08:10 24.9 °C 22.2 °C 1012.5 hPa SE 3.2 km/h 8.0 km/h 85% 0.0 mm
08:15 25.1 °C 22.4 °C 1012.5 hPa SSE 3.2 km/h 8.0 km/h 85% 0.0 mm
08:20 25.1 °C 22.2 °C 1012.6 hPa SW 3.2 km/h 7.4 km/h 84% 0.0 mm CLR
08:25 25.2 °C 22.3 °C 1012.6 hPa SSW 3.2 km/h 8.0 km/h 84% 0.0 mm CLR
08:30 25.3 °C 22.4 °C 1012.6 hPa SSW 3.2 km/h 8.0 km/h 84% 0.0 mm CLR
08:35 25.4 °C 22.3 °C 1012.8 hPa WNW 4.7 km/h 7.4 km/h 83% 0.0 mm CLR
08:40 25.6 °C 22.7 °C 1012.8 hPa West 3.2 km/h 8.0 km/h 84% 0.0 mm CLR
08:45 25.6 °C 22.7 °C 1012.8 hPa WNW 3.2 km/h 8.0 km/h 84% 0.0 mm CLR
08:50 25.6 °C 22.7 °C 1013.0 hPa WNW 4.7 km/h 6.4 km/h 84% 0.0 mm CLR
08:55 25.7 °C 22.8 °C 1013.0 hPa WNW 3.2 km/h 8.0 km/h 84% 0.0 mm CLR
09:00 25.7 °C 22.6 °C 1013.0 hPa West 3.2 km/h 8.0 km/h 83% 0.0 mm CLR
09:05 25.8 °C 22.7 °C 1013.0 hPa West 3.2 km/h 8.0 km/h 83% 0.0 mm CLR
09:10 25.8 °C 22.7 °C 1013.0 hPa West 3.2 km/h 8.0 km/h 83% 0.0 mm CLR
09:15 25.9 °C 22.6 °C 1013.0 hPa West 3.2 km/h 8.0 km/h 82% 0.0 mm CLR
09:20 26.0 °C 22.7 °C 1013.2 hPa West 4.8 km/h 8.0 km/h 82% 0.0 mm CLR
09:25 26.1 °C 22.8 °C 1013.2 hPa West 4.8 km/h 8.0 km/h 82% 0.0 mm CLR
09:30 26.2 °C 22.9 °C 1013.2 hPa West 3.2 km/h 6.4 km/h 82% 0.0 mm CLR
09:35 26.3 °C 22.8 °C 1013.3 hPa West 3.2 km/h 8.0 km/h 81% 0.0 mm CLR
09:40 26.6 °C 22.9 °C 1013.3 hPa WNW 3.2 km/h 9.7 km/h 80% 0.0 mm CLR
09:45 26.7 °C 22.8 °C 1013.3 hPa WNW 3.2 km/h 9.7 km/h 79% 0.0 mm CLR
09:50 26.8 °C 22.7 °C 1013.4 hPa WNW 3.2 km/h 8.0 km/h 78% 0.0 mm CLR
09:55 27.0 °C 22.8 °C 1013.4 hPa WSW 3.2 km/h 8.0 km/h 78% 0.0 mm CLR
10:00 27.2 °C 22.8 °C 1013.4 hPa SSW 3.2 km/h 11.3 km/h 77% 0.0 mm CLR
10:05 27.3 °C 22.9 °C 1013.4 hPa SSE 3.2 km/h 8.0 km/h 77% 0.0 mm CLR
10:10 27.3 °C 22.9 °C 1013.4 hPa SE 4.8 km/h 8.0 km/h 77% 0.0 mm CLR
10:15 27.6 °C 22.8 °C 1013.4 hPa ENE 4.8 km/h 11.3 km/h 75% 0.0 mm CLR
10:20 27.6 °C 22.6 °C 1013.5 hPa NE 4.8 km/h 11.3 km/h 74% 0.0 mm CLR
10:25 27.6 °C 22.3 °C 1013.5 hPa ENE 4.8 km/h 11.3 km/h 73% 0.0 mm CLR
10:30 27.7 °C 22.6 °C 1013.5 hPa ENE 8.0 km/h 11.3 km/h 74% 0.0 mm CLR
10:35 27.9 °C 22.6 °C 1013.5 hPa ESE 6.4 km/h 7.4 km/h 73% 0.0 mm CLR
10:40 28.2 °C 22.7 °C 1013.5 hPa East 3.2 km/h 8.0 km/h 72% 0.0 mm CLR
10:45 28.4 °C 22.4 °C 1013.5 hPa ENE 3.2 km/h 16.1 km/h 70% 0.0 mm CLR
10:50 28.3 °C 22.3 °C 1013.5 hPa ENE 8.0 km/h 12.9 km/h 70% 0.0 mm CLR
10:55 28.5 °C 22.3 °C 1013.5 hPa East 8.0 km/h 14.5 km/h 69% 0.0 mm CLR
11:00 28.7 °C 21.9 °C 1013.5 hPa East 8.0 km/h 11.3 km/h 67% 0.0 mm CLR
11:05 28.7 °C 21.9 °C 1013.5 hPa East 8.0 km/h 11.3 km/h 67% 0.0 mm CLR
11:10 28.8 °C 22.0 °C 1013.5 hPa ENE 8.0 km/h 11.3 km/h 67% 0.0 mm CLR
11:15 29.0 °C 22.2 °C 1013.5 hPa NE 8.0 km/h 11.3 km/h 67% 0.0 mm CLR
11:20 29.1 °C 21.3 °C 1013.6 hPa NNE 8.0 km/h 16.1 km/h 63% 0.0 mm CLR
11:25 29.0 °C 21.2 °C 1013.6 hPa NE 8.0 km/h 14.5 km/h 63% 0.0 mm CLR
11:30 29.1 °C 21.1 °C 1013.6 hPa NE 8.0 km/h 14.5 km/h 62% 0.0 mm CLR
11:35 29.2 °C 21.4 °C 1013.8 hPa NNE 8.0 km/h 12.9 km/h 63% 0.0 mm CLR
11:40 29.3 °C 21.5 °C 1013.8 hPa NNE 8.0 km/h 14.5 km/h 63% 0.0 mm CLR
11:45 29.4 °C 21.1 °C 1013.8 hPa NNE 8.0 km/h 14.5 km/h 61% 0.0 mm CLR
11:50 29.7 °C 21.1 °C 1013.7 hPa NE 8.0 km/h 9.7 km/h 60% 0.0 mm CLR
11:55 29.9 °C 21.0 °C 1013.7 hPa ENE 8.0 km/h 19.3 km/h 59% 0.0 mm CLR
12:00 29.7 °C 20.8 °C 1013.7 hPa ENE 9.7 km/h 16.1 km/h 59% 0.0 mm CLR
12:05 29.7 °C 21.1 °C 1013.7 hPa NE 9.7 km/h 14.5 km/h 60% 0.0 mm CLR
12:10 29.7 °C 21.1 °C 1013.7 hPa North 8.0 km/h 11.3 km/h 60% 0.0 mm CLR
12:15 29.9 °C 21.1 °C 1013.7 hPa NNE 8.0 km/h 11.3 km/h 59% 0.0 mm CLR
12:20 30.4 °C 20.6 °C 1013.8 hPa SSW 5.0 km/h 9.3 km/h 56% 0.0 mm CLR
12:25 30.6 °C 21.1 °C 1013.8 hPa SSE 4.8 km/h 9.7 km/h 57% 0.0 mm CLR
12:30 30.8 °C 21.3 °C 1013.8 hPa NNE 8.0 km/h 16.1 km/h 57% 0.0 mm CLR
12:35 30.8 °C 21.0 °C 1013.8 hPa NE 8.0 km/h 11.3 km/h 56% 0.0 mm CLR
12:40 31.0 °C 20.9 °C 1013.8 hPa NE 8.0 km/h 14.5 km/h 55% 0.0 mm CLR
12:45 30.8 °C 21.1 °C 1013.8 hPa NNE 8.0 km/h 16.1 km/h 56% 0.0 mm CLR
12:50 30.6 °C 20.6 °C 1013.7 hPa NNE 9.7 km/h 17.7 km/h 55% 0.0 mm CLR
12:55 30.6 °C 20.8 °C 1013.7 hPa NNE 9.7 km/h 14.5 km/h 56% 0.0 mm CLR
13:00 30.9 °C 20.8 °C 1013.7 hPa NNE 8.0 km/h 19.3 km/h 55% 0.0 mm CLR
13:05 30.7 °C 20.3 °C 1013.6 hPa NNE 8.0 km/h 20.9 km/h 54% 0.0 mm CLR
13:10 30.6 °C 20.2 °C 1013.6 hPa NNE 9.7 km/h 12.9 km/h 54% 0.0 mm CLR
13:15 30.7 °C 20.3 °C 1013.6 hPa NE 9.7 km/h 20.9 km/h 54% 0.0 mm CLR
13:20 30.8 °C 20.4 °C 1013.6 hPa NE 9.7 km/h 16.1 km/h 54% 0.0 mm CLR
13:25 30.9 °C 20.5 °C 1013.6 hPa NE 9.7 km/h 16.1 km/h 54% 0.0 mm CLR
13:30 31.1 °C 20.1 °C 1013.6 hPa NE 9.7 km/h 19.3 km/h 52% 0.0 mm CLR
13:35 31.1 °C 20.1 °C 1013.5 hPa NNE 9.7 km/h 12.9 km/h 52% 0.0 mm CLR
13:40 31.3 °C 20.6 °C 1013.5 hPa NNE 8.0 km/h 20.9 km/h 53% 0.0 mm CLR
13:45 31.5 °C 20.1 °C 1013.5 hPa NNE 8.0 km/h 22.5 km/h 51% 0.0 mm CLR
13:50 31.3 °C 19.9 °C 1013.3 hPa NE 12.9 km/h 19.3 km/h 51% 0.0 mm CLR
13:55 31.3 °C 20.3 °C 1013.3 hPa NNE 12.9 km/h 19.3 km/h 52% 0.0 mm CLR
14:00 31.3 °C 20.6 °C 1013.3 hPa NE 11.3 km/h 24.1 km/h 53% 0.0 mm CLR
14:05 31.3 °C 20.9 °C 1013.2 hPa ENE 11.3 km/h 20.9 km/h 54% 0.0 mm CLR
14:10 31.3 °C 20.6 °C 1013.2 hPa NE 11.3 km/h 20.9 km/h 53% 0.0 mm CLR
14:15 31.3 °C 20.6 °C 1013.2 hPa NE 11.3 km/h 20.9 km/h 53% 0.0 mm CLR
14:20 31.5 °C 20.1 °C 1013.1 hPa NE 11.3 km/h 17.7 km/h 51% 0.0 mm CLR
14:25 31.8 °C 21.1 °C 1013.1 hPa NE 11.3 km/h 27.4 km/h 53% 0.0 mm CLR
14:30 31.7 °C 21.3 °C 1013.1 hPa NE 11.3 km/h 27.4 km/h 54% 0.0 mm CLR
14:35 31.7 °C 20.9 °C 1013.1 hPa ENE 11.3 km/h 24.1 km/h 53% 0.0 mm CLR
14:40 31.7 °C 21.2 °C 1013.1 hPa ENE 12.9 km/h 24.1 km/h 54% 0.0 mm CLR
14:45 31.6 °C 21.2 °C 1013.1 hPa ENE 12.9 km/h 25.7 km/h 54% 0.0 mm CLR
14:50 31.5 °C 21.1 °C 1013.1 hPa ENE 12.9 km/h 27.4 km/h 54% 0.0 mm CLR
14:55 31.4 °C 21.0 °C 1013.1 hPa NE 12.9 km/h 25.7 km/h 54% 0.0 mm CLR
15:00 31.4 °C 21.0 °C 1013.1 hPa NE 14.5 km/h 22.5 km/h 54% 0.0 mm CLR
15:05 31.3 °C 20.9 °C 1013.1 hPa NE 14.5 km/h 24.1 km/h 54% 0.0 mm CLR
15:10 31.4 °C 21.0 °C 1013.1 hPa NE 12.9 km/h 22.5 km/h 54% 0.0 mm CLR
15:15 31.6 °C 20.8 °C 1013.1 hPa NE 12.9 km/h 19.3 km/h 53% 0.0 mm CLR
15:20 31.7 °C 20.9 °C 1013.2 hPa NE 11.3 km/h 19.3 km/h 53% 0.0 mm CLR
15:25 31.6 °C 20.6 °C 1013.2 hPa NE 11.3 km/h 19.3 km/h 52% 0.0 mm CLR
15:30 31.8 °C 20.7 °C 1013.2 hPa ENE 11.3 km/h 20.9 km/h 52% 0.0 mm CLR
15:35 31.6 °C 20.9 °C 1013.1 hPa NE 11.3 km/h 24.1 km/h 53% 0.0 mm CLR
15:40 31.8 °C 21.1 °C 1013.1 hPa NE 14.5 km/h 25.7 km/h 53% 0.0 mm CLR
15:45 31.9 °C 20.8 °C 1013.1 hPa ENE 14.5 km/h 25.7 km/h 52% 0.0 mm CLR
15:50 31.8 °C 21.1 °C 1012.9 hPa ENE 14.5 km/h 25.7 km/h 53% 0.0 mm CLR
15:55 31.9 °C 21.1 °C 1012.9 hPa ENE 14.5 km/h 27.4 km/h 53% 0.0 mm CLR
16:00 31.9 °C 20.8 °C 1012.9 hPa ENE 16.1 km/h 27.4 km/h 52% 0.0 mm CLR
16:05 31.9 °C 20.8 °C 1012.8 hPa ENE 16.1 km/h 29.0 km/h 52% 0.0 mm CLR
16:10 31.9 °C 20.8 °C 1012.8 hPa NE 16.1 km/h 30.6 km/h 52% 0.0 mm CLR
16:15 31.8 °C 20.7 °C 1012.8 hPa NE 16.1 km/h 30.6 km/h 52% 0.0 mm CLR
16:20 31.6 °C 20.8 °C 1013.0 hPa NE 18.3 km/h 33.3 km/h 53% 0.0 mm CLR
16:25 31.5 °C 21.1 °C 1013.0 hPa NE 18.3 km/h 16.7 km/h 54% 0.0 mm CLR
16:30 31.4 °C 20.7 °C 1013.0 hPa NE 19.3 km/h 35.4 km/h 53% 0.0 mm CLR
16:35 31.3 °C 20.9 °C 1013.0 hPa NE 19.3 km/h 29.0 km/h 54% 0.0 mm CLR
16:40 31.2 °C 20.8 °C 1013.0 hPa NE 20.9 km/h 32.2 km/h 54% 0.0 mm CLR
16:45 31.3 °C 20.6 °C 1013.0 hPa ENE 20.9 km/h 27.4 km/h 53% 0.0 mm CLR
16:50 31.1 °C 20.7 °C 1013.0 hPa NE 19.3 km/h 40.2 km/h 54% 0.0 mm CLR
16:55 31.1 °C 20.7 °C 1013.0 hPa NE 19.3 km/h 40.2 km/h 54% 0.0 mm CLR
17:00 30.8 °C 20.7 °C 1013.0 hPa NE 22.5 km/h 33.8 km/h 55% 0.0 mm CLR
17:05 30.7 °C 20.9 °C 1013.0 hPa NE 22.5 km/h 33.8 km/h 56% 0.0 mm CLR
17:10 30.7 °C 20.9 °C 1013.0 hPa ENE 20.9 km/h 37.0 km/h 56% 0.0 mm CLR
17:15 30.7 °C 21.2 °C 1013.0 hPa NE 20.1 km/h 40.7 km/h 57% 0.0 mm CLR
17:20 30.6 °C 21.1 °C 1013.4 hPa ENE 18.3 km/h 29.6 km/h 57% 0.0 mm CLR
17:25 30.7 °C 21.2 °C 1013.4 hPa ENE 19.3 km/h 35.4 km/h 57% 0.0 mm CLR
17:30 30.7 °C 21.2 °C 1013.4 hPa ENE 19.3 km/h 35.4 km/h 57% 0.0 mm CLR
17:35 30.3 °C 21.1 °C 1013.4 hPa ENE 19.3 km/h 30.6 km/h 58% 0.0 mm CLR
17:40 30.3 °C 21.4 °C 1013.4 hPa ENE 16.1 km/h 27.4 km/h 59% 0.0 mm CLR
17:45 30.4 °C 21.6 °C 1013.4 hPa ENE 16.1 km/h 25.7 km/h 59% 0.0 mm CLR
17:50 30.3 °C 21.1 °C 1013.7 hPa ENE 16.1 km/h 37.0 km/h 58% 0.0 mm CLR
17:55 30.1 °C 21.2 °C 1013.7 hPa NE 16.1 km/h 35.4 km/h 59% 0.0 mm CLR
18:00 29.9 °C 21.3 °C 1013.7 hPa NE 20.9 km/h 35.4 km/h 60% 0.0 mm CLR
18:05 29.8 °C 20.9 °C 1013.8 hPa NE 20.9 km/h 40.2 km/h 59% 0.0 mm CLR
18:10 29.6 °C 21.0 °C 1013.8 hPa NE 22.5 km/h 38.6 km/h 60% 0.0 mm CLR
18:15 29.4 °C 20.9 °C 1013.8 hPa ENE 22.5 km/h 32.2 km/h 60% 0.0 mm CLR
18:20 29.3 °C 21.0 °C 1013.8 hPa NE 16.1 km/h 38.6 km/h 61% 0.0 mm CLR
18:25 29.2 °C 21.2 °C 1013.8 hPa NE 16.1 km/h 32.2 km/h 62% 0.0 mm CLR
18:30 29.3 °C 21.0 °C 1013.8 hPa NE 14.5 km/h 27.4 km/h 61% 0.0 mm CLR
18:35 29.3 °C 21.3 °C 1013.9 hPa ENE 14.5 km/h 25.7 km/h 62% 0.0 mm CLR
18:40 29.2 °C 21.2 °C 1013.9 hPa ENE 12.9 km/h 24.1 km/h 62% 0.0 mm CLR
18:45 29.1 °C 21.1 °C 1013.9 hPa ENE 12.9 km/h 33.8 km/h 62% 0.0 mm CLR
18:50 29.1 °C 21.3 °C 1014.2 hPa ENE 14.5 km/h 29.0 km/h 63% 0.0 mm CLR
18:55 28.9 °C 21.4 °C 1014.2 hPa ENE 14.5 km/h 27.4 km/h 64% 0.0 mm CLR
19:00 28.9 °C 21.2 °C 1014.2 hPa ENE 16.1 km/h 33.8 km/h 63% 0.0 mm CLR
19:05 28.9 °C 21.4 °C 1014.1 hPa East 16.1 km/h 20.4 km/h 64% 0.0 mm CLR
19:10 29.1 °C 21.3 °C 1014.1 hPa ENE 12.9 km/h 24.1 km/h 63% 0.0 mm CLR
19:15 29.0 °C 21.2 °C 1014.1 hPa ENE 12.9 km/h 40.2 km/h 63% 0.0 mm CLR
19:20 28.8 °C 21.3 °C 1014.5 hPa ENE 16.1 km/h 27.4 km/h 64% 0.0 mm CLR
19:25 28.8 °C 21.6 °C 1014.5 hPa ENE 16.1 km/h 29.0 km/h 65% 0.0 mm CLR
19:30 28.6 °C 21.6 °C 1014.5 hPa ENE 16.1 km/h 29.0 km/h 66% 0.0 mm CLR
19:35 28.5 °C 21.8 °C 1014.8 hPa NE 16.1 km/h 25.7 km/h 67% 0.0 mm CLR
19:40 28.4 °C 21.9 °C 1014.8 hPa NE 16.1 km/h 32.2 km/h 68% 0.0 mm CLR
19:45 28.3 °C 21.8 °C 1014.8 hPa NE 16.1 km/h 22.5 km/h 68% 0.0 mm CLR
19:50 28.3 °C 22.1 °C 1014.9 hPa NE 14.5 km/h 25.7 km/h 69% 0.0 mm CLR
19:55 28.2 °C 22.2 °C 1014.9 hPa NE 14.5 km/h 33.8 km/h 70% 0.0 mm CLR
20:00 28.1 °C 22.3 °C 1014.9 hPa NE 19.3 km/h 33.8 km/h 71% 0.0 mm CLR
20:05 27.9 °C 21.9 °C 1014.9 hPa NE 19.3 km/h 29.0 km/h 70% 0.0 mm CLR
20:10 27.9 °C 21.9 °C 1014.9 hPa NE 14.0 km/h 27.8 km/h 70% 0.0 mm CLR
20:15 27.8 °C 21.9 °C 1014.9 hPa NE 14.5 km/h 29.0 km/h 70% 0.0 mm CLR
20:20 27.8 °C 21.8 °C 1014.8 hPa ENE 14.5 km/h 25.7 km/h 70% 0.0 mm CLR
20:25 27.7 °C 21.5 °C 1014.8 hPa NE 14.5 km/h 27.4 km/h 69% 0.0 mm CLR
20:30 27.7 °C 21.7 °C 1014.8 hPa NE 14.5 km/h 30.6 km/h 70% 0.0 mm CLR
20:35 27.6 °C 21.4 °C 1015.1 hPa NE 14.5 km/h 27.4 km/h 69% 0.0 mm CLR
20:40 27.6 °C 21.4 °C 1015.1 hPa NE 16.1 km/h 29.0 km/h 69% 0.0 mm CLR
20:45 27.6 °C 21.3 °C 1015.1 hPa NE 16.1 km/h 32.2 km/h 69% 0.0 mm CLR
20:50 27.4 °C 21.4 °C 1015.6 hPa NE 19.3 km/h 32.2 km/h 70% 0.0 mm CLR
20:55 27.3 °C 21.6 °C 1015.6 hPa NE 19.3 km/h 33.8 km/h 71% 0.0 mm CLR
21:00 27.2 °C 21.5 °C 1015.6 hPa NE 19.3 km/h 32.2 km/h 71% 0.0 mm CLR
21:05 27.2 °C 21.5 °C 1015.5 hPa NE 19.3 km/h 27.4 km/h 71% 0.0 mm CLR
21:10 27.2 °C 21.5 °C 1015.5 hPa NE 19.3 km/h 35.4 km/h 71% 0.0 mm CLR
21:15 27.2 °C 21.4 °C 1015.5 hPa NE 19.3 km/h 35.4 km/h 71% 0.0 mm CLR
21:20 27.1 °C 21.2 °C 1015.6 hPa NE 19.3 km/h 35.4 km/h 70% 0.0 mm CLR
21:25 27.1 °C 21.2 °C 1015.6 hPa NE 19.3 km/h 29.0 km/h 70% 0.0 mm CLR
21:30 27.1 °C 21.2 °C 1015.6 hPa NE 16.1 km/h 25.7 km/h 70% 0.0 mm CLR
21:35 27.1 °C 21.2 °C 1015.5 hPa NE 16.1 km/h 25.7 km/h 70% 0.0 mm CLR
21:40 27.1 °C 21.2 °C 1015.5 hPa NE 14.5 km/h 25.7 km/h 70% 0.0 mm CLR
21:45 27.1 °C 21.1 °C 1015.5 hPa NE 14.5 km/h 24.1 km/h 70% 0.0 mm CLR
21:50 27.1 °C 21.1 °C 1015.6 hPa NE 12.9 km/h 24.1 km/h 70% 0.0 mm CLR
21:55 27.0 °C 21.1 °C 1015.6 hPa NE 12.9 km/h 22.5 km/h 70% 0.0 mm CLR
22:00 27.0 °C 21.1 °C 1015.6 hPa NE 11.3 km/h 19.3 km/h 70% 0.0 mm CLR
22:05 26.9 °C 21.0 °C 1016.0 hPa NE 11.3 km/h 29.0 km/h 70% 0.0 mm CLR
22:10 26.9 °C 20.9 °C 1016.0 hPa NE 12.9 km/h 22.5 km/h 70% 0.0 mm CLR
22:15 26.9 °C 21.2 °C 1016.0 hPa NE 12.9 km/h 22.5 km/h 71% 0.0 mm CLR
22:20 26.9 °C 21.2 °C 1016.3 hPa NE 9.7 km/h 16.1 km/h 71% 0.0 mm CLR
22:25 26.8 °C 21.1 °C 1016.3 hPa NNE 9.7 km/h 16.1 km/h 71% 0.0 mm CLR
22:30 26.7 °C 21.0 °C 1016.3 hPa NE 9.7 km/h 20.9 km/h 71% 0.0 mm CLR
22:35 26.7 °C 21.2 °C 1016.2 hPa NE 9.7 km/h 22.5 km/h 72% 0.0 mm CLR
22:40 26.6 °C 21.1 °C 1016.2 hPa NE 12.9 km/h 19.3 km/h 72% 0.0 mm CLR
22:45 26.6 °C 21.1 °C 1016.2 hPa NE 12.9 km/h 20.9 km/h 72% 0.0 mm CLR
22:50 26.6 °C 21.3 °C 1016.3 hPa NE 11.3 km/h 24.1 km/h 73% 0.0 mm CLR
22:55 26.6 °C 21.3 °C 1016.3 hPa NNE 11.9 km/h 18.5 km/h 73% 0.0 mm CLR
23:00 26.6 °C 21.3 °C 1016.3 hPa NE 12.9 km/h 19.3 km/h 73% 0.0 mm CLR
23:05 26.4 °C 21.4 °C 1016.6 hPa NNE 12.9 km/h 17.7 km/h 74% 0.0 mm CLR
23:10 26.4 °C 21.2 °C 1016.6 hPa North 9.7 km/h 11.3 km/h 73% 0.0 mm CLR
23:15 26.4 °C 21.4 °C 1016.6 hPa NNW 9.7 km/h 12.9 km/h 74% 0.0 mm CLR
23:20 26.2 °C 21.2 °C 1016.7 hPa NW 8.0 km/h 12.9 km/h 74% 0.0 mm CLR
23:25 26.1 °C 21.1 °C 1016.7 hPa NW 8.0 km/h 16.1 km/h 74% 0.0 mm CLR
23:30 25.9 °C 20.9 °C 1016.7 hPa NW 9.7 km/h 19.3 km/h 74% 0.0 mm CLR
23:35 25.8 °C 20.8 °C 1016.8 hPa NW 9.7 km/h 16.1 km/h 74% 0.0 mm CLR
23:40 25.8 °C 20.8 °C 1016.8 hPa NW 9.7 km/h 14.5 km/h 74% 0.0 mm CLR
23:45 25.8 °C 20.8 °C 1016.8 hPa NW 9.7 km/h 9.7 km/h 74% 0.0 mm CLR
23:50 25.8 °C 20.8 °C 1016.8 hPa NW 4.8 km/h 9.7 km/h 74% 0.0 mm CLR
23:55 25.8 °C 20.8 °C 1016.8 hPa NW 4.8 km/h 8.0 km/h 74% 0.0 mm CLR
Murcia-Puente Tocinos, España
Compliments of Weather Underground - 2.75 mb

La estación de MeteoMurcia.com, publica sus datos en los siguientes proyectos:

Weather Underground PWS IMURCIAP2 Meteoclimatic www.awekas.at

W3Counter
Web Analytics